Location: Arrien
(42.8963°N, 1.0429°E)
Time: 01:11:42
(UTC+00:00)

Cosmos 1553 Rocket - Pass Details

Date: 11 December 2025
Orbit: 942 x 1006 km, 82.9° (Epoch: 17 January)

Event Time Altitude Azimuth Distance (km) Brightness Sun altitude
Rises 18:00:48 0° 168° (SSE) 3,612 7.0 -17.5°
Reaches altitude 10° 18:03:20 10° 163° (SSE) 2,679 6.3 -17.9°
Maximum altitude 18:09:11 49° 91° (E) 1,233 4.1 -19.0°
Enters shadow 18:14:56 11° 19° (NNE) 2,660 6.0 -20.0°
